Year,Month,Day,Hour,Minute,Value (Times are PST for temperature in C)
2008,10,01,00,00,12.60
2008,10,01,00,01,12.60
2008,10,01,00,02,12.60
2008,10,01,00,03,12.50
2008,10,01,00,04,12.50
2008,10,01,00,05,12.50
2008,10,01,00,06,12.50
2008,10,01,00,07,12.40
2008,10,01,00,08,12.40
2008,10,01,00,09,12.40
2008,10,01,00,10,12.40
2008,10,01,00,11,12.30
2008,10,01,00,12,12.30
2008,10,01,00,13,12.30
2008,10,01,00,14,12.30
2008,10,01,00,15,12.30
2008,10,01,00,16,12.30
2008,10,01,00,17,12.30
2008,10,01,00,18,12.20
2008,10,01,00,19,12.20
2008,10,01,00,20,12.20
2008,10,01,00,21,12.20
2008,10,01,00,22,12.10
2008,10,01,00,23,12.10
2008,10,01,00,24,12.10
2008,10,01,00,25,12.00
2008,10,01,00,26,12.00
2008,10,01,00,27,12.00
2008,10,01,00,28,11.90
2008,10,01,00,29,11.90
2008,10,01,00,30,11.90
2008,10,01,00,31,11.90
2008,10,01,00,32,11.80
2008,10,01,00,33,11.80
2008,10,01,00,34,11.80
2008,10,01,00,35,11.80
2008,10,01,00,36,11.80
2008,10,01,00,37,11.80
2008,10,01,00,38,11.80
2008,10,01,00,39,11.80
2008,10,01,00,40,11.80
2008,10,01,00,41,11.80
2008,10,01,00,42,11.80
2008,10,01,00,43,11.80
2008,10,01,00,44,11.80
2008,10,01,01,02,11.50
2008,10,01,01,03,11.50
2008,10,01,01,04,11.50
2008,10,01,01,05,11.60
2008,10,01,01,06,11.60
2008,10,01,01,07,11.60
2008,10,01,01,08,11.60
2008,10,01,01,09,11.60
2008,10,01,01,10,11.60
2008,10,01,01,11,11.60
2008,10,01,01,12,11.60
2008,10,01,01,13,11.60
2008,10,01,01,14,11.60
2008,10,01,01,15,11.60
2008,10,01,01,16,11.60
2008,10,01,01,17,11.60
2008,10,01,01,18,11.50
2008,10,01,01,19,11.50
2008,10,01,01,20,11.50
2008,10,01,01,21,11.50
2008,10,01,01,22,11.50
2008,10,01,01,23,11.40
2008,10,01,01,24,11.40
2008,10,01,01,25,11.40
2008,10,01,01,26,11.40
2008,10,01,01,27,11.30
2008,10,01,01,28,11.30
2008,10,01,01,29,11.30
2008,10,01,01,30,11.30
2008,10,01,01,31,11.30
2008,10,01,01,32,11.30
2008,10,01,01,33,11.20
2008,10,01,01,34,11.20
2008,10,01,01,35,11.10
2008,10,01,01,36,11.10
2008,10,01,01,37,11.10
2008,10,01,01,38,11.00
2008,10,01,01,39,11.00
2008,10,01,01,40,10.90
2008,10,01,01,41,10.90
2008,10,01,01,42,10.90
2008,10,01,01,43,10.90
2008,10,01,01,44,10.90
2008,10,01,01,45,10.80
2008,10,01,01,46,10.80
2008,10,01,01,47,10.80
2008,10,01,01,48,10.80
2008,10,01,01,49,10.80
2008,10,01,01,50,10.80
2008,10,01,01,51,10.80
2008,10,01,01,52,10.80
2008,10,01,01,53,10.80
2008,10,01,01,54,10.80
2008,10,01,01,55,10.80
2008,10,01,01,56,10.80
2008,10,01,01,57,10.80
2008,10,01,01,58,10.80
2008,10,01,01,59,10.80
2008,10,01,02,00,10.80
2008,10,01,02,01,10.80
2008,10,01,02,02,10.80
2008,10,01,02,03,10.80
2008,10,01,02,04,10.80
2008,10,01,02,05,10.80
2008,10,01,02,06,10.80
2008,10,01,02,07,10.80
2008,10,01,02,08,10.80
2008,10,01,02,09,10.80
2008,10,01,02,10,10.90
2008,10,01,02,11,10.90
2008,10,01,02,12,10.90
2008,10,01,02,13,10.90
2008,10,01,02,14,10.80
2008,10,01,02,15,10.80
2008,10,01,02,16,10.80
2008,10,01,02,17,10.70
2008,10,01,02,18,10.70
2008,10,01,02,19,10.70
2008,10,01,02,20,10.70
2008,10,01,02,21,10.70
2008,10,01,02,22,10.70
2008,10,01,02,23,10.70
2008,10,01,02,24,10.70
2008,10,01,02,25,10.70
2008,10,01,02,26,10.60
2008,10,01,02,27,10.60
2008,10,01,02,28,10.60
2008,10,01,02,29,10.60
2008,10,01,02,30,10.60
2008,10,01,02,31,10.50
2008,10,01,02,32,10.50
2008,10,01,02,33,10.50
2008,10,01,02,34,10.50
2008,10,01,02,35,10.50
2008,10,01,02,36,10.60
2008,10,01,02,37,10.60
2008,10,01,02,38,10.60
2008,10,01,02,39,10.60
2008,10,01,02,40,10.60
2008,10,01,02,41,10.60
2008,10,01,02,42,10.50
2008,10,01,02,43,10.50
2008,10,01,02,44,10.40
2008,10,01,02,45,10.40
2008,10,01,02,46,10.40
2008,10,01,02,47,10.40
2008,10,01,02,48,10.40
2008,10,01,02,49,10.40
2008,10,01,02,50,10.30
2008,10,01,02,51,10.30
2008,10,01,02,52,10.30
2008,10,01,02,53,10.30
2008,10,01,02,54,10.30
2008,10,01,02,55,10.30
2008,10,01,02,56,10.30
2008,10,01,02,57,10.30
2008,10,01,02,58,10.30
2008,10,01,02,59,10.30
2008,10,01,03,00,10.30
2008,10,01,03,01,10.30
2008,10,01,03,02,10.30
2008,10,01,03,03,10.20
2008,10,01,03,04,10.20
2008,10,01,03,05,10.20
2008,10,01,03,06,10.20
2008,10,01,03,07,10.20
2008,10,01,03,08,10.20
2008,10,01,03,09,10.20
2008,10,01,03,10,10.20
2008,10,01,03,11,10.20
2008,10,01,03,12,10.20
2008,10,01,03,13,10.20
2008,10,01,03,14,10.20
2008,10,01,03,15,10.20
2008,10,01,03,16,10.20
2008,10,01,03,17,10.30
2008,10,01,03,18,10.30
2008,10,01,03,19,10.30
2008,10,01,03,20,10.40
2008,10,01,03,21,10.40
2008,10,01,03,22,10.40
2008,10,01,03,23,10.40
2008,10,01,03,24,10.40
2008,10,01,03,25,10.40
2008,10,01,03,26,10.40
2008,10,01,03,27,10.40
2008,10,01,03,28,10.40
2008,10,01,03,29,10.40
2008,10,01,03,30,10.40
2008,10,01,03,31,10.40
2008,10,01,03,32,10.40
2008,10,01,03,33,10.30
2008,10,01,03,34,10.30
2008,10,01,03,35,10.30
2008,10,01,03,36,10.20
2008,10,01,03,37,10.20
2008,10,01,03,38,10.20
2008,10,01,03,39,10.10
2008,10,01,03,40,10.10
2008,10,01,03,41,10.10
2008,10,01,03,42,10.00
2008,10,01,03,43,10.00
2008,10,01,03,44,9.90
2008,10,01,03,45,9.90
2008,10,01,03,46,9.90
2008,10,01,03,47,9.90
2008,10,01,03,48,9.90
2008,10,01,03,49,9.90
2008,10,01,03,50,9.90
2008,10,01,03,51,9.90
2008,10,01,03,52,9.90
2008,10,01,03,53,9.80
2008,10,01,03,54,9.80
2008,10,01,03,55,9.80
2008,10,01,03,56,9.80
2008,10,01,03,57,9.80
2008,10,01,03,58,9.80
2008,10,01,03,59,9.80
2008,10,01,04,00,9.80
2008,10,01,04,01,9.80
2008,10,01,04,02,9.80
2008,10,01,04,03,9.80
2008,10,01,04,04,9.80
2008,10,01,04,05,9.80
2008,10,01,04,06,9.80
2008,10,01,04,07,9.80
2008,10,01,04,08,9.90
2008,10,01,04,09,9.90
2008,10,01,04,10,9.90
2008,10,01,04,11,9.90
2008,10,01,04,12,9.90
2008,10,01,04,13,9.80
2008,10,01,04,14,9.80
2008,10,01,04,15,9.80
2008,10,01,04,16,9.70
2008,10,01,04,17,9.70
2008,10,01,04,18,9.70
2008,10,01,04,19,9.60
2008,10,01,04,20,9.60
2008,10,01,04,21,9.60
2008,10,01,04,22,9.60
2008,10,01,04,23,9.60
2008,10,01,04,24,9.60
2008,10,01,04,25,9.60
2008,10,01,04,26,9.60
2008,10,01,04,27,9.60
2008,10,01,04,28,9.60
2008,10,01,04,29,9.60
2008,10,01,04,30,9.60
2008,10,01,04,31,9.50
2008,10,01,04,32,9.50
2008,10,01,04,33,9.40
2008,10,01,04,34,9.30
2008,10,01,04,35,9.30
2008,10,01,04,36,9.30
2008,10,01,04,37,9.20
2008,10,01,04,38,9.20
2008,10,01,04,39,9.20
2008,10,01,04,40,9.20
2008,10,01,04,41,9.20
2008,10,01,04,42,9.20
2008,10,01,04,43,9.30
2008,10,01,04,44,9.30
2008,10,01,04,45,9.30
2008,10,01,04,46,9.30
2008,10,01,04,47,9.30
2008,10,01,04,48,9.30
2008,10,01,04,49,9.30
2008,10,01,04,50,9.30
2008,10,01,04,51,9.30
2008,10,01,04,52,9.30
2008,10,01,04,53,9.30
2008,10,01,04,54,9.30
2008,10,01,04,55,9.40
2008,10,01,04,56,9.40
2008,10,01,04,57,9.40
2008,10,01,04,58,9.40
2008,10,01,04,59,9.40
2008,10,01,05,00,9.40
2008,10,01,05,01,9.40
2008,10,01,05,02,9.40
2008,10,01,05,03,9.40
2008,10,01,05,04,9.40
2008,10,01,05,05,9.40
2008,10,01,05,06,9.40
2008,10,01,05,07,9.40
2008,10,01,05,08,9.40
2008,10,01,05,09,9.40
2008,10,01,05,10,9.40
2008,10,01,05,11,9.40
2008,10,01,05,12,9.40
2008,10,01,05,13,9.40
2008,10,01,05,14,9.40
2008,10,01,05,15,9.40
2008,10,01,05,16,9.30
2008,10,01,05,17,9.30
2008,10,01,05,18,9.30
2008,10,01,05,19,9.30
2008,10,01,05,20,9.30
2008,10,01,05,21,9.30
2008,10,01,05,22,9.30
2008,10,01,05,23,9.20
2008,10,01,05,24,9.20
2008,10,01,05,25,9.20
2008,10,01,05,26,9.10
2008,10,01,05,27,9.10
2008,10,01,05,28,9.10
2008,10,01,05,29,9.10
2008,10,01,05,30,9.10
2008,10,01,05,31,9.10
2008,10,01,05,32,9.00
2008,10,01,05,33,9.00
2008,10,01,05,34,9.00
2008,10,01,05,35,8.90
2008,10,01,05,36,8.90
2008,10,01,05,37,8.90
2008,10,01,05,38,8.90
2008,10,01,05,39,8.90
2008,10,01,05,40,8.90
2008,10,01,05,41,8.90
2008,10,01,05,42,8.90
2008,10,01,05,43,8.90
2008,10,01,05,44,8.90
2008,10,01,05,45,8.90
2008,10,01,05,46,8.90
2008,10,01,05,47,8.90
2008,10,01,05,48,8.80
2008,10,01,05,49,8.80
2008,10,01,05,50,8.80
2008,10,01,05,51,8.80
2008,10,01,05,52,8.80
2008,10,01,05,53,8.80
2008,10,01,05,54,8.80
2008,10,01,05,55,8.80
2008,10,01,05,56,8.80
2008,10,01,05,57,8.80
2008,10,01,05,58,8.80
2008,10,01,05,59,8.70
2008,10,01,06,00,8.70
2008,10,01,06,01,8.70
2008,10,01,06,02,8.70
2008,10,01,06,03,8.70
2008,10,01,06,04,8.70
2008,10,01,06,05,8.70
2008,10,01,06,06,8.70
2008,10,01,06,07,8.70
2008,10,01,06,08,8.70
2008,10,01,06,09,8.70
2008,10,01,06,10,8.70
2008,10,01,06,11,8.60
2008,10,01,06,12,8.60
2008,10,01,06,13,8.60
2008,10,01,06,14,8.60
2008,10,01,06,15,8.60
2008,10,01,06,16,8.60
2008,10,01,06,17,8.60
2008,10,01,06,18,8.60
2008,10,01,06,19,8.60
2008,10,01,06,20,8.60
2008,10,01,06,21,8.60
2008,10,01,06,22,8.60
2008,10,01,06,23,8.50
2008,10,01,06,24,8.50
2008,10,01,06,25,8.50
2008,10,01,06,26,8.50
2008,10,01,06,27,8.50
2008,10,01,06,28,8.50
2008,10,01,06,29,8.50
2008,10,01,06,30,8.50
2008,10,01,06,31,8.50
2008,10,01,06,32,8.50
2008,10,01,06,33,8.50
2008,10,01,06,34,8.50
2008,10,01,06,35,8.50
2008,10,01,06,36,8.50
2008,10,01,06,37,8.50
2008,10,01,06,38,8.50
2008,10,01,06,39,8.50
2008,10,01,06,40,8.50
2008,10,01,06,41,8.50
2008,10,01,06,42,8.50
2008,10,01,06,43,8.60
2008,10,01,06,44,8.60
2008,10,01,06,45,8.60
2008,10,01,06,46,8.60
2008,10,01,06,47,8.60
2008,10,01,06,48,8.60
2008,10,01,06,49,8.60
2008,10,01,06,50,8.60
2008,10,01,06,51,8.70
2008,10,01,06,52,8.70
2008,10,01,06,53,8.70
2008,10,01,06,54,8.70
2008,10,01,06,55,8.70
2008,10,01,06,56,8.70
2008,10,01,06,57,8.70
2008,10,01,06,58,8.70
2008,10,01,06,59,8.70
2008,10,01,07,00,8.80
2008,10,01,07,01,8.80
2008,10,01,07,02,8.80
2008,10,01,07,03,8.80
2008,10,01,07,04,8.80
2008,10,01,07,05,8.80
2008,10,01,07,06,8.80
2008,10,01,07,07,8.80
2008,10,01,07,08,8.80
2008,10,01,07,09,8.90
2008,10,01,07,10,8.90
2008,10,01,07,11,8.90
2008,10,01,07,12,8.90
2008,10,01,07,13,9.00
2008,10,01,07,14,9.00
2008,10,01,07,15,9.00
2008,10,01,07,16,9.00
2008,10,01,07,17,9.10
2008,10,01,07,18,9.10
2008,10,01,07,19,9.10
2008,10,01,07,20,9.10
2008,10,01,07,21,9.10
2008,10,01,07,22,9.10
2008,10,01,07,23,9.00
2008,10,01,07,24,9.00
2008,10,01,07,25,9.00
2008,10,01,07,26,8.90
2008,10,01,07,27,8.90
2008,10,01,07,28,8.90
2008,10,01,07,29,8.80
2008,10,01,07,30,8.80
2008,10,01,07,31,8.80
2008,10,01,07,32,8.80
2008,10,01,07,33,8.80
2008,10,01,07,34,8.80
2008,10,01,07,35,8.80
2008,10,01,07,36,8.80
2008,10,01,07,37,8.80
2008,10,01,07,38,8.80
2008,10,01,07,39,8.80
2008,10,01,07,40,8.80
2008,10,01,07,41,8.80
2008,10,01,07,42,8.80
2008,10,01,07,43,8.80
2008,10,01,07,44,8.80
2008,10,01,07,45,8.90
2008,10,01,07,46,8.90
2008,10,01,07,47,8.90
2008,10,01,07,48,8.90
2008,10,01,07,49,8.90
2008,10,01,07,50,8.90
2008,10,01,07,51,8.90
2008,10,01,07,52,8.90
2008,10,01,07,53,9.00
2008,10,01,07,54,9.00
2008,10,01,07,55,9.00
2008,10,01,07,56,9.10
2008,10,01,07,57,9.10
2008,10,01,07,58,9.10
2008,10,01,07,59,9.10
2008,10,01,08,00,9.10
2008,10,01,08,01,9.20
2008,10,01,08,02,9.20
2008,10,01,08,03,9.20
2008,10,01,08,04,9.30
2008,10,01,08,05,9.30
2008,10,01,08,06,9.30
2008,10,01,08,07,9.30
2008,10,01,08,08,9.40
2008,10,01,08,09,9.40
2008,10,01,08,10,9.40
2008,10,01,08,11,9.40
2008,10,01,08,12,9.40
2008,10,01,08,13,9.40
2008,10,01,08,14,9.40
2008,10,01,08,15,9.40
2008,10,01,08,16,9.50
2008,10,01,08,17,9.50
2008,10,01,08,18,9.60
2008,10,01,08,19,9.60
2008,10,01,08,20,9.70
2008,10,01,08,21,9.70
2008,10,01,08,22,9.70
2008,10,01,08,23,9.80
2008,10,01,08,24,9.80
2008,10,01,08,25,9.80
2008,10,01,08,26,9.90
2008,10,01,08,27,9.90
2008,10,01,08,28,10.00
2008,10,01,08,29,10.00
2008,10,01,08,30,10.10
2008,10,01,08,31,10.10
2008,10,01,08,32,10.10
2008,10,01,08,33,10.20
2008,10,01,08,34,10.20
2008,10,01,08,35,10.20
2008,10,01,08,36,10.30
2008,10,01,08,37,10.30
2008,10,01,08,38,10.30
2008,10,01,08,39,10.40
2008,10,01,08,40,10.50
2008,10,01,08,41,10.50
2008,10,01,08,42,10.60
2008,10,01,08,43,10.70
2008,10,01,08,44,10.80
2008,10,01,08,45,10.80
2008,10,01,08,46,10.90
2008,10,01,08,47,11.00
2008,10,01,08,48,11.10
2008,10,01,08,49,11.20
2008,10,01,08,50,11.30
2008,10,01,08,51,11.50
2008,10,01,08,52,11.60
2008,10,01,08,53,11.70
2008,10,01,08,54,11.70
2008,10,01,08,55,11.80
2008,10,01,08,56,11.80
2008,10,01,08,57,11.80
2008,10,01,08,58,11.90
2008,10,01,08,59,11.90
2008,10,01,09,00,12.00
2008,10,01,09,01,12.00
2008,10,01,09,02,12.10
2008,10,01,09,03,12.10
2008,10,01,09,04,12.10
2008,10,01,09,05,12.20
2008,10,01,09,06,12.20
2008,10,01,09,07,12.20
2008,10,01,09,08,12.20
2008,10,01,09,09,12.30
2008,10,01,09,10,12.30
2008,10,01,09,11,12.40
2008,10,01,09,12,12.50
2008,10,01,09,13,12.60
2008,10,01,09,14,12.70
2008,10,01,09,15,12.80
2008,10,01,09,16,12.80
2008,10,01,09,17,12.90
2008,10,01,09,18,13.00
2008,10,01,09,19,13.10
2008,10,01,09,20,13.20
2008,10,01,09,21,13.30
2008,10,01,09,22,13.40
2008,10,01,09,23,13.50
2008,10,01,09,24,13.60
2008,10,01,09,25,13.70
2008,10,01,09,26,13.80
2008,10,01,09,27,13.90
2008,10,01,09,28,14.10
2008,10,01,09,29,14.20
2008,10,01,09,30,14.40
2008,10,01,09,31,14.50
2008,10,01,09,32,14.70
2008,10,01,09,33,14.80
2008,10,01,09,34,15.00
2008,10,01,09,35,15.00
2008,10,01,09,36,15.00
2008,10,01,09,37,15.00
2008,10,01,09,38,15.00
2008,10,01,09,39,15.10
2008,10,01,09,40,15.20
2008,10,01,09,41,15.20
2008,10,01,09,42,15.30
2008,10,01,09,43,15.30
2008,10,01,09,44,15.40
2008,10,01,09,45,15.50
2008,10,01,09,46,15.50
2008,10,01,09,47,15.50
2008,10,01,09,48,15.50
2008,10,01,09,49,15.50
2008,10,01,09,50,15.50
2008,10,01,09,51,15.40
2008,10,01,09,52,15.30
2008,10,01,09,53,15.10
2008,10,01,09,54,15.00
2008,10,01,09,55,15.00
2008,10,01,09,56,14.80
2008,10,01,09,57,14.70
2008,10,01,09,58,14.60
2008,10,01,09,59,14.50
2008,10,01,10,00,14.40
2008,10,01,10,01,14.40
2008,10,01,10,02,14.40
2008,10,01,10,03,14.30
2008,10,01,10,04,14.30
2008,10,01,10,05,14.30
2008,10,01,10,06,14.30
2008,10,01,10,07,14.30
2008,10,01,10,08,14.30
2008,10,01,10,09,14.30
2008,10,01,10,10,14.30
2008,10,01,10,11,14.40
2008,10,01,10,12,14.50
2008,10,01,10,13,14.60
2008,10,01,10,14,14.70
2008,10,01,10,15,14.80
2008,10,01,10,16,14.90
2008,10,01,10,17,15.00
2008,10,01,10,18,15.00
2008,10,01,10,19,15.10
2008,10,01,10,20,15.30
2008,10,01,10,21,15.50
2008,10,01,10,22,15.60
2008,10,01,10,23,15.80
2008,10,01,10,24,16.00
2008,10,01,10,25,16.10
2008,10,01,10,26,16.20
2008,10,01,10,27,16.40
2008,10,01,10,28,16.50
2008,10,01,10,29,16.70
2008,10,01,10,30,16.90
2008,10,01,10,31,17.00
2008,10,01,10,32,17.20
2008,10,01,10,33,17.30
2008,10,01,10,34,17.40
2008,10,01,10,35,17.40
2008,10,01,10,36,17.50
2008,10,01,10,37,17.60
2008,10,01,10,38,17.60
2008,10,01,10,39,17.50
2008,10,01,10,40,17.50
2008,10,01,10,41,17.50
2008,10,01,10,42,17.50
2008,10,01,10,43,17.60
2008,10,01,10,44,17.70
2008,10,01,10,45,17.70
2008,10,01,10,46,17.80
2008,10,01,10,47,17.90
2008,10,01,10,48,17.90
2008,10,01,10,49,17.90
2008,10,01,10,50,17.80
2008,10,01,10,51,17.80
2008,10,01,10,52,17.70
2008,10,01,10,53,17.70
2008,10,01,10,54,17.60
2008,10,01,10,55,17.40
2008,10,01,10,56,17.30
2008,10,01,10,57,17.30
2008,10,01,10,58,17.30
2008,10,01,10,59,17.30
2008,10,01,11,00,17.30
2008,10,01,11,01,17.40
2008,10,01,11,02,17.50
2008,10,01,11,03,17.60
2008,10,01,11,04,17.70
2008,10,01,11,05,17.80
2008,10,01,11,06,18.00
2008,10,01,11,07,18.10
2008,10,01,11,08,18.30
2008,10,01,11,09,18.40
2008,10,01,11,10,18.40
2008,10,01,11,11,18.40
2008,10,01,11,12,18.40
2008,10,01,11,13,18.30
2008,10,01,11,14,18.10
2008,10,01,11,15,18.00
2008,10,01,11,16,17.90
2008,10,01,11,17,17.80
2008,10,01,11,18,17.80
2008,10,01,11,19,17.80
2008,10,01,11,20,17.70
2008,10,01,11,21,17.70
2008,10,01,11,22,17.60
2008,10,01,11,23,17.50
2008,10,01,11,24,17.40
2008,10,01,11,25,17.40
2008,10,01,11,26,17.30
2008,10,01,11,27,17.20
2008,10,01,11,28,17.10
2008,10,01,11,29,17.10
2008,10,01,11,30,17.10
2008,10,01,11,31,17.00
2008,10,01,11,32,17.00
2008,10,01,11,33,16.90
2008,10,01,11,34,16.90
2008,10,01,11,35,16.80
2008,10,01,11,36,16.80
2008,10,01,11,37,16.80
2008,10,01,11,38,16.80
2008,10,01,11,39,16.80
2008,10,01,11,40,16.90
2008,10,01,11,41,16.90
2008,10,01,11,42,16.90
2008,10,01,11,43,16.90
2008,10,01,11,44,16.90
2008,10,01,11,45,16.90
2008,10,01,11,46,17.00
2008,10,01,11,47,17.10
2008,10,01,11,48,17.10
2008,10,01,11,49,17.20
2008,10,01,11,50,17.20
2008,10,01,11,51,17.30
2008,10,01,11,52,17.30
2008,10,01,11,53,17.30
2008,10,01,11,54,17.40
2008,10,01,11,55,17.40
2008,10,01,11,56,17.40
2008,10,01,11,57,17.50
2008,10,01,11,58,17.50
2008,10,01,11,59,17.60
2008,10,01,12,00,17.80
2008,10,01,12,01,17.90
2008,10,01,12,02,18.00
2008,10,01,12,03,18.20
2008,10,01,12,04,18.30
2008,10,01,12,05,18.50
2008,10,01,12,06,18.60
2008,10,01,12,07,18.80
2008,10,01,12,08,18.90
2008,10,01,12,09,19.10
2008,10,01,12,10,19.20
2008,10,01,12,11,19.30
2008,10,01,12,12,19.40
2008,10,01,12,13,19.60
2008,10,01,12,14,19.60
2008,10,01,12,15,19.70
2008,10,01,12,16,19.70
2008,10,01,12,17,19.70
2008,10,01,12,18,19.60
2008,10,01,12,19,19.60
2008,10,01,12,20,19.60
2008,10,01,12,21,19.60
2008,10,01,12,22,19.50
2008,10,01,12,23,19.50
2008,10,01,12,24,19.60
2008,10,01,12,25,19.70
2008,10,01,12,26,19.70
2008,10,01,12,27,19.80
2008,10,01,12,28,19.90
2008,10,01,12,29,19.90
2008,10,01,12,30,19.90
2008,10,01,12,31,19.90
2008,10,01,12,32,19.90
2008,10,01,12,33,19.90
2008,10,01,12,34,19.90
2008,10,01,12,35,19.90
2008,10,01,12,36,19.90
2008,10,01,12,37,19.90
2008,10,01,12,38,19.80
2008,10,01,12,39,19.80
2008,10,01,12,40,19.80
2008,10,01,12,41,19.80
2008,10,01,12,42,19.80
2008,10,01,12,43,19.80
2008,10,01,12,44,19.80
2008,10,01,12,45,19.80
2008,10,01,12,46,19.80
2008,10,01,12,47,19.70
2008,10,01,12,48,19.70
2008,10,01,12,49,19.60
2008,10,01,12,50,19.50
2008,10,01,12,51,19.40
2008,10,01,12,52,19.20
2008,10,01,12,53,19.00
2008,10,01,12,54,18.70
2008,10,01,12,55,18.60
2008,10,01,12,56,18.60
2008,10,01,12,57,18.50
2008,10,01,12,58,18.50
2008,10,01,12,59,18.40
2008,10,01,13,00,18.40
2008,10,01,13,01,18.40
2008,10,01,13,02,18.30
2008,10,01,13,03,18.20
2008,10,01,13,04,18.20
2008,10,01,13,05,18.20
2008,10,01,13,06,18.10
2008,10,01,13,07,18.00
2008,10,01,13,08,17.90
2008,10,01,13,09,17.90
2008,10,01,13,10,17.80
2008,10,01,13,11,17.70
2008,10,01,13,12,17.70
2008,10,01,13,13,17.70
2008,10,01,13,14,17.70
2008,10,01,13,15,17.80
2008,10,01,13,16,17.90
2008,10,01,13,17,18.00
2008,10,01,13,18,18.10
2008,10,01,13,19,18.10
2008,10,01,13,20,18.20
2008,10,01,13,21,18.20
2008,10,01,13,22,18.20
2008,10,01,13,23,18.10
2008,10,01,13,24,18.10
2008,10,01,13,25,18.00
2008,10,01,13,26,18.10
2008,10,01,13,27,18.10
2008,10,01,13,28,18.10
2008,10,01,13,29,18.20
2008,10,01,13,30,18.20
2008,10,01,13,31,18.20
2008,10,01,13,32,18.20
2008,10,01,13,33,18.20
2008,10,01,13,34,18.30
2008,10,01,13,35,18.20
2008,10,01,13,36,18.20
2008,10,01,13,37,18.10
2008,10,01,13,38,18.00
2008,10,01,13,39,17.90
2008,10,01,13,40,17.80
2008,10,01,13,41,17.80
2008,10,01,13,42,17.80
2008,10,01,13,43,17.70
2008,10,01,13,44,17.60
2008,10,01,13,45,17.60
2008,10,01,13,46,17.60
2008,10,01,13,47,17.60
2008,10,01,13,48,17.70
2008,10,01,13,49,17.70
2008,10,01,13,50,17.70
2008,10,01,13,51,17.70
2008,10,01,13,52,17.80
2008,10,01,13,53,17.90
2008,10,01,13,54,17.90
2008,10,01,13,55,18.00
2008,10,01,13,56,18.10
2008,10,01,13,57,18.20
2008,10,01,13,58,18.30
2008,10,01,13,59,18.40
2008,10,01,14,00,18.50
2008,10,01,14,01,18.60
2008,10,01,14,02,18.70
2008,10,01,14,03,18.70
2008,10,01,14,04,18.80
2008,10,01,14,05,18.80
2008,10,01,14,06,18.90
2008,10,01,14,07,18.80
2008,10,01,14,08,18.80
2008,10,01,14,09,18.70
2008,10,01,14,10,18.60
2008,10,01,14,11,18.70
2008,10,01,14,12,18.70
2008,10,01,14,13,18.70
2008,10,01,14,14,18.80
2008,10,01,14,15,18.80
2008,10,01,14,16,18.70
2008,10,01,14,17,18.70
2008,10,01,14,18,18.60
2008,10,01,14,19,18.60
2008,10,01,14,20,18.70
2008,10,01,14,21,18.70
2008,10,01,14,22,18.80
2008,10,01,14,23,18.90
2008,10,01,14,24,19.00
2008,10,01,14,25,19.10
2008,10,01,14,26,19.20
2008,10,01,14,27,19.20
2008,10,01,14,28,19.20
2008,10,01,14,29,19.20
2008,10,01,14,30,19.20
2008,10,01,14,31,19.10
2008,10,01,14,32,18.90
2008,10,01,14,33,18.70
2008,10,01,14,34,18.60
2008,10,01,14,35,18.50
2008,10,01,14,36,18.50
2008,10,01,14,37,18.60
2008,10,01,14,38,18.60
2008,10,01,14,39,18.50
2008,10,01,14,40,18.50
2008,10,01,14,41,18.40
2008,10,01,14,42,18.40
2008,10,01,14,43,18.40
2008,10,01,14,44,18.30
2008,10,01,14,45,18.30
2008,10,01,14,46,18.20
2008,10,01,14,47,18.10
2008,10,01,14,48,18.00
2008,10,01,14,49,17.90
2008,10,01,14,50,17.90
2008,10,01,14,51,17.80
2008,10,01,14,52,17.70
2008,10,01,14,53,17.70
2008,10,01,14,54,17.70
2008,10,01,14,55,17.60
2008,10,01,14,56,17.50
2008,10,01,14,57,17.50
2008,10,01,14,58,17.40
2008,10,01,14,59,17.40
2008,10,01,15,00,17.30
2008,10,01,15,01,17.30
2008,10,01,15,02,17.30
2008,10,01,15,03,17.20
2008,10,01,15,04,17.10
2008,10,01,15,05,17.10
2008,10,01,15,06,17.10
2008,10,01,15,07,17.10
2008,10,01,15,08,17.10
2008,10,01,15,09,17.10
2008,10,01,15,10,17.00
2008,10,01,15,11,16.90
2008,10,01,15,12,16.80
2008,10,01,15,13,16.80
2008,10,01,15,14,16.80
2008,10,01,15,15,16.80
2008,10,01,15,16,16.80
2008,10,01,15,17,16.90
2008,10,01,15,18,16.90
2008,10,01,15,19,16.90
2008,10,01,15,20,16.90
2008,10,01,15,21,16.90
2008,10,01,15,22,16.80
2008,10,01,15,23,16.80
2008,10,01,15,24,16.70
2008,10,01,15,25,16.70
2008,10,01,15,26,16.70
2008,10,01,15,27,16.60
2008,10,01,15,28,16.60
2008,10,01,15,29,16.60
2008,10,01,15,30,16.60
2008,10,01,15,31,16.60
2008,10,01,15,32,16.60
2008,10,01,15,33,16.60
2008,10,01,15,34,16.60
2008,10,01,15,35,16.70
2008,10,01,15,36,16.70
2008,10,01,15,37,16.70
2008,10,01,15,38,16.70
2008,10,01,15,39,16.70
2008,10,01,15,40,16.70
2008,10,01,15,41,16.60
2008,10,01,15,42,16.60
2008,10,01,15,43,16.50
2008,10,01,15,44,16.50
2008,10,01,15,45,16.50
2008,10,01,15,46,16.50
2008,10,01,15,47,16.50
2008,10,01,15,48,16.50
2008,10,01,15,49,16.40
2008,10,01,15,50,16.40
2008,10,01,15,51,16.40
2008,10,01,15,52,16.50
2008,10,01,15,53,16.50
2008,10,01,15,54,16.40
2008,10,01,15,55,16.40
2008,10,01,15,56,16.40
2008,10,01,15,57,16.40
2008,10,01,15,58,16.40
2008,10,01,15,59,16.30
2008,10,01,16,00,16.30
2008,10,01,16,01,16.30
2008,10,01,16,02,16.30
2008,10,01,16,03,16.30
2008,10,01,16,04,16.30
2008,10,01,16,05,16.40
2008,10,01,16,06,16.30
2008,10,01,16,07,16.30
2008,10,01,16,08,16.30
2008,10,01,16,09,16.30
2008,10,01,16,10,16.20
2008,10,01,16,11,16.20
2008,10,01,16,12,16.10
2008,10,01,16,13,16.00
2008,10,01,16,14,15.90
2008,10,01,16,15,15.90
2008,10,01,16,16,15.80
2008,10,01,16,17,15.70
2008,10,01,16,18,15.70
2008,10,01,16,19,15.70
2008,10,01,16,20,15.70
2008,10,01,16,21,15.70
2008,10,01,16,22,15.70
2008,10,01,16,23,15.70
2008,10,01,16,24,15.70
2008,10,01,16,25,15.70
2008,10,01,16,26,15.70
2008,10,01,16,27,15.80
2008,10,01,16,28,15.80
2008,10,01,16,29,15.80
2008,10,01,16,30,15.80
2008,10,01,16,31,15.90
2008,10,01,16,32,15.90
2008,10,01,16,33,15.90
2008,10,01,16,34,15.90
2008,10,01,16,35,15.90
2008,10,01,16,36,15.90
2008,10,01,16,37,15.90
2008,10,01,16,38,15.90
2008,10,01,16,39,15.90
2008,10,01,16,40,16.00
2008,10,01,16,41,16.00
2008,10,01,16,42,16.00
2008,10,01,16,43,16.00
2008,10,01,16,44,16.00
2008,10,01,16,45,16.00
2008,10,01,16,46,16.00
2008,10,01,16,47,16.00
2008,10,01,16,48,16.00
2008,10,01,16,49,15.90
2008,10,01,16,50,15.90
2008,10,01,16,51,15.90
2008,10,01,16,52,15.90
2008,10,01,16,53,15.90
2008,10,01,16,54,15.90
2008,10,01,16,55,15.90
2008,10,01,16,56,15.90
2008,10,01,16,57,15.90
2008,10,01,16,58,15.90
2008,10,01,16,59,15.90
2008,10,01,17,00,15.90
2008,10,01,17,01,15.90
2008,10,01,17,02,15.90
2008,10,01,17,03,15.90
2008,10,01,17,04,15.90
2008,10,01,17,05,15.90
2008,10,01,17,06,15.80
2008,10,01,17,07,15.80
2008,10,01,17,08,15.80
2008,10,01,17,09,15.80
2008,10,01,17,10,15.90
2008,10,01,17,11,15.90
2008,10,01,17,12,15.90
2008,10,01,17,13,15.90
2008,10,01,17,14,16.00
2008,10,01,17,15,16.00
2008,10,01,17,16,16.00
2008,10,01,17,17,16.00
2008,10,01,17,18,15.90
2008,10,01,17,19,15.90
2008,10,01,17,20,15.90
2008,10,01,17,21,15.90
2008,10,01,17,22,15.90
2008,10,01,17,23,15.90
2008,10,01,17,24,15.90
2008,10,01,17,25,15.90
2008,10,01,17,26,15.90
2008,10,01,17,27,15.90
2008,10,01,17,28,15.80
2008,10,01,17,29,15.80
2008,10,01,17,30,15.80
2008,10,01,17,31,15.70
2008,10,01,17,32,15.70
2008,10,01,17,33,15.70
2008,10,01,17,34,15.70
2008,10,01,17,35,15.70
2008,10,01,17,36,15.70
2008,10,01,17,37,15.70
2008,10,01,17,38,15.70
2008,10,01,17,39,15.70
2008,10,01,17,40,15.70
2008,10,01,17,41,15.70
2008,10,01,17,42,15.70
2008,10,01,17,43,15.70
2008,10,01,17,44,15.70
2008,10,01,17,45,15.60
2008,10,01,17,46,15.60
2008,10,01,17,47,15.60
2008,10,01,17,48,15.60